DW8078 Weather Reports


Display with metric or nautical units.
time (UTC)temp
F
wind
direction
speed
MPH
gust
MPH
rain 1hr
in
rain 24hr
in
rain mn
in
humidity
%
barometer
mb
20181217091545 28 192 0.0 2.0 0.00 0.00 0.00 88 1022.2
20181217090031 28 187 0.0 3.0 0.00 0.00 0.00 88 1022.0
20181217084537 28 173 0.0 4.0 0.00 0.00 0.00 88 1021.9
20181217083026 28 169 0.0 4.0 0.00 0.00 0.00 89 1021.9
20181217081513 28 169 1.0 3.0 0.00 0.00 0.00 89 1021.8
20181217080243 28 187 0.0 3.0 0.00 0.00 0.00 89 1021.8
20181217074644 28 175 0.0 3.0 0.00 0.00 0.00 89 1021.6
20181217073115 27 178 0.0 3.0 0.00 0.00 0.00 89 1021.4
20181217071647 27 186 0.0 0.0 0.00 0.00 0.00 89 1021.3
20181217070121 27 178 0.0 0.0 0.00 0.00 0.00 89 1021.2
20181217053103 27 163 1.0 6.0 0.00 0.00 0.00 89 1020.6
20181217050143 27 155 2.0 4.0 0.00 0.00 0.00 89 1020.6
20181217044602 27 168 0.0 0.0 0.00 0.00 0.00 89 1020.5
20181217043056 27 169 0.0 0.0 0.00 0.00 0.00 90 1020.4
20181217041648 26 152 1.0 3.0 0.00 0.00 0.00 89 1020.3
20181217040109 26 165 0.0 0.0 0.00 0.00 0.00 89 1020.5
20181217034548 26 165 0.0 0.0 0.00 0.00 0.00 89 1020.3
20181217033113 26 165 0.0 0.0 0.00 0.00 0.00 89 1020.2
20181217031553 26 165 1.0 4.0 0.00 0.00 0.00 89 1020.1
20181217030051 26 188 0.0 0.0 0.00 0.00 0.00 89 1020.2
20181217024551 26 190 0.0 0.0 0.00 0.00 0.00 89 1020.1
20181217023136 26 180 0.0 5.0 0.00 0.00 0.00 89 1020.2
20181217021603 26 190 0.0 0.0 0.00 0.00 0.00 89 1020.2
20181217020045 26 191 0.0 4.0 0.00 0.00 0.00 89 1020.1
20181217014652 26 192 0.0 0.0 0.00 0.00 0.00 89 1020.1
20181217013107 26 185 0.0 6.0 0.00 0.00 0.00 89 1020.2
20181217011540 26 191 0.0 6.0 0.00 0.00 0.00 89 1020.2
20181217010104 26 205 1.0 8.0 0.00 0.00 0.00 89 1020.2
20181217004618 26 211 1.0 6.0 0.00 0.00 0.00 89 1020.0
20181217003056 26 183 0.0 7.0 0.00 0.00 0.00 89 1019.9
20181217001527 26 205 0.0 6.0 0.00 0.00 0.00 89 1019.8
20181217000041 26 214 3.0 7.0 0.00 0.00 0.00 89 1019.7
20181216234530 26 209 1.0 5.0 0.00 0.00 0.00 89 1019.8
20181216233024 27 206 0.0 0.0 0.00 0.00 0.00 88 1019.9
20181216231530 27 200 0.0 7.0 0.00 0.00 0.00 89 1019.9
20181216230035 28 209 1.0 7.0 0.00 0.00 0.00 89 1019.6
20181216224514 28 227 0.0 5.0 0.00 0.00 0.00 89 1019.7
20181216223022 28 237 0.0 8.0 0.00 0.00 0.00 89 1019.6
20181216221532 29 218 1.0 6.0 0.00 0.00 0.00 89 1019.6
20181216220008 29 219 0.0 6.0 0.00 0.00 0.00 89 1019.5
20181216214507 29 231 1.0 8.0 0.00 0.00 0.00 89 1019.5
20181216213010 29 217 0.0 6.0 0.00 0.00 0.00 89 1019.4
20181216211505 29 219 0.0 8.0 0.00 0.00 0.00 89 1019.3
20181216210021 29 229 0.0 5.0 0.00 0.00 0.00 89 1019.3
20181216204503 29 227 0.0 5.0 0.00 0.00 0.00 89 1019.2
20181216203008 29 217 2.0 7.0 0.00 0.00 0.00 89 1019.1
20181216201639 29 217 0.0 7.0 0.00 0.00 0.00 89 1019.1
20181216200233 29 229 1.0 6.0 0.00 0.00 0.00 90 1019.0
20181216194805 29 218 0.0 6.0 0.00 0.00 0.00 89 1019.0
20181216193208 29 193 0.0 7.0 0.00 0.00 0.00 90 1018.8
20181216191651 29 230 1.0 7.0 0.00 0.00 0.00 90 1018.6
20181216190202 29 233 0.0 6.0 0.00 0.00 0.00 90 1018.6
20181216184702 29 192 1.0 7.0 0.00 0.00 0.00 90 1018.6
20181216183202 29 229 0.0 7.0 0.00 0.00 0.00 90 1018.7
20181216181634 29 185 2.0 9.0 0.00 0.00 0.00 90 1018.5
20181216180118 29 192 0.0 10.0 0.00 0.00 0.00 90 1018.5
20181216174637 29 187 0.0 6.0 0.00 0.00 0.00 90 1018.5
20181216173104 29 232 1.0 7.0 0.00 0.00 0.00 90 1018.5
20181216171716 29 210 0.0 7.0 0.00 0.00 0.00 90 1018.4
20181216170123 29 190 2.0 9.0 0.00 0.00 0.00 90 1018.4
20181216164640 29 221 1.0 8.0 0.00 0.00 0.00 89 1018.3
20181216163059 29 197 1.0 7.0 0.00 0.00 0.00 89 1018.2
20181216161723 29 185 0.0 5.0 0.00 0.00 0.00 89 1018.2
20181216160052 29 185 2.0 9.0 0.00 0.00 0.00 89 1018.2
20181216154624 29 173 1.0 7.0 0.00 0.00 0.00 89 1018.1
20181216153122 29 170 2.0 7.0 0.00 0.00 0.00 89 1018.1
20181216151628 29 180 2.0 8.0 0.00 0.00 0.00 89 1018.3
20181216150120 29 185 1.0 5.0 0.00 0.00 0.00 89 1018.4
20181216144551 29 176 2.0 7.0 0.00 0.00 0.00 89 1018.5
20181216143124 29 187 1.0 7.0 0.00 0.00 0.00 89 1018.7
20181216141607 29 184 1.0 7.0 0.00 0.00 0.00 89 1018.5
20181216140123 29 180 3.0 8.0 0.00 0.00 0.00 89 1018.5
20181216134550 29 165 1.0 7.0 0.00 0.00 0.00 90 1018.6
20181216133057 29 182 0.0 9.0 0.00 0.00 0.00 90 1018.7
20181216131550 29 167 4.0 9.0 0.00 0.00 0.00 90 1018.6
20181216130110 29 176 4.0 10.0 0.00 0.00 0.00 90 1018.6
20181216124541 29 171 1.0 8.0 0.00 0.00 0.00 90 1018.6
20181216123048 29 157 1.0 8.0 0.00 0.00 0.00 90 1018.7
20181216121552 29 133 3.0 10.0 0.00 0.00 0.00 90 1019.0
20181216120033 29 144 2.0 10.0 0.00 0.01 0.00 90 1019.1
20181216114559 29 159 3.0 11.0 0.00 0.01 0.00 90 1019.4
20181216113111 29 160 1.0 10.0 0.00 0.01 0.00 90 1019.6
20181216111536 29 166 4.0 10.0 0.00 0.01 0.00 90 1019.8
20181216110025 29 154 4.0 9.0 0.00 0.01 0.00 90 1020.0
20181216104528 29 164 4.0 8.0 0.00 0.01 0.00 90 1020.3
20181216103026 29 158 2.0 8.0 0.00 0.01 0.00 90 1020.4
20181216101520 29 178 3.0 7.0 0.00 0.01 0.00 90 1020.7
20181216100006 29 163 4.0 9.0 0.00 0.01 0.00 90 1020.9
20181216094502 29 154 2.0 9.0 0.00 0.01 0.00 90 1021.2
20181216093139 29 119 4.0 10.0 0.00 0.01 0.00 90 1021.3